Regional Weather Roundup
Issued by NWS

Home | Current Version | Previous Version | Graphics & Text | Print | Product List | Glossary On
Versions: 1 2 3 4 5 6 7 8 9 10 11 12 13 14 15 16 17 18 19 20 21 22 23 24 25 26 27 28 29 30 31 32 33 34 35 36 37 38 39 40 41 42 43 44 45 46 47 48 49 50
592
ASUS43 KMPX 260701
RWRMN
WEATHER ROUNDUP FOR MINNESOTA
NATIONAL WEATHER SERVICE TWIN CITIES/CHANHASSEN MN
200 AM CDT MON SEP 26 2016


NOTE: "FAIR" INDICATES FEW OR NO CLOUDS BELOW 12,000 FEET WITH NO
SIGNIFICANT WEATHER AND/OR OBSTRUCTIONS TO VISIBILITY. N/A MEANS
CURRENT SKY AND/OR WEATHER CONDITIONS ARE NOT AVAILABLE.

MNZ060>063-068>070-260800-
   Twin Cities Metro

CITY           SKY/WX    TMP DP  RH WIND       PRES   REMARKS
TWIN CITIES    MOCLDY    55  43  63 W14       29.96F
ST PAUL        MOCLDY    56  43  61 W16G26    29.96F
CRYSTAL        MOCLDY    54  42  64 W10G20    29.95S
BLAINE         CLOUDY    55  45  67 W20G28    29.94F
LAKEVILLE      MOCLDY    50  43  76 W6        29.98F
EDEN PRAIRIE   MOCLDY    52  44  74 W7        29.97S
LAKEVILLE      MOCLDY    50  43  76 W6        29.98F
SOUTH ST PAUL  PTCLDY    55  44  67 W9        29.96S
LAKE ELMO      MOCLDY    54  45  71 W16G23    29.96S
$$
MNZ001>005-007-008-013>017-022>024-027-028-260800-
   Northwest Minnesota

CITY           SKY/WX    TMP DP  RH WIND       PRES   REMARKS
BEMIDJI        CLOUDY    48  46  92 W12       29.85S
HALLOCK        CLEAR     52  43  71 NW15      29.88S
ROSEAU         PTCLDY    48  45  87 W15G22    29.80S
WARROAD        PTCLDY    50  46  87 W13G18    29.77F
CROOKSTON      PTCLDY    48  43  81 NW15      29.92S
FOSSTON        CLOUDY    48  43  81 W16       29.90S
DETROIT LAKES  CLEAR     50  41  71 NW13G24   29.94S
MOORHEAD       CLEAR     52  37  58 W18       29.97F
PARK RAPIDS    CLOUDY    49  45  86 W12       29.89F
MAHNOMEN       FAIR      49  42  77 W15       29.91S
$$
MNZ006-009>011-018-025>026-260800-
   North Central Minnesota

CITY           SKY/WX    TMP DP  RH WIND       PRES   REMARKS
BAUDETTE       LGT RAIN  50  47  89 NW23G32   29.73S
FLAG ISLAND    LGT RAIN  52  48  87 NW25G33   29.71R
INTL FALLS     LGT RAIN  51  48  89 W16G23    29.66S
WASKISH        LGT RAIN  50  48  93 W21G28    29.78S
BIG FORK       LGT RAIN  50  46  87 W9G22     29.74S
GRAND RAPIDS   LGT RAIN  49  47  93 NW17G23   29.79S
ORR            DRIZZLE   50  46  87 W13G22    29.64F
COOK           DRIZZLE   48  48 100 W15G21    29.68S
WALKER         DRIZZLE   48  45  90 W14G21    29.85S
$$
MNZ012-019>021-037-260800-
   Northeast Minnesota

CITY           SKY/WX    TMP DP  RH WIND       PRES   REMARKS
DULUTH         LGT RAIN  50  48  93 W21       29.73F FOG
ELY            RAIN      48  48 100 W10G16    29.63F
HIBBING        LGT RAIN  49  47  93 W16G24    29.71F
EVELETH        DRIZZLE   50  49  94 W16       29.70F
DULUTH HARBOR  DRIZZLE   54  50  87 SW17      29.74F
TWO HARBORS    CLOUDY    54  48  82 W13G22    29.67F
SILVER BAY     CLOUDY    54  48  82 SW6       29.65F
GRAND MARAIS     N/A     57  53  86 W15G24    29.62F
G MARAIS ARPRT CLOUDY    50  45  81 SW5       29.64F
$$
MNZ029>031-032-039>041-046>048-054>057-064-260800-
   West Central Minnesota

CITY           SKY/WX    TMP DP  RH WIND       PRES   REMARKS
FERGUS FALLS   CLEAR     48  39  71 W13       30.00S
MORRIS         CLEAR     52  37  58 W15       30.00S
ALEXANDRIA     CLOUDY    51  42  71 W15       29.98F
ELBOW LAKE     FAIR      50  39  66 NW14G20   29.99F
GLENWOOD       PTCLDY    52  43  71 W10       29.98F
BENSON         CLEAR     46  37  71 NW9       30.01F
MADISON          N/A     52  39  62 W9        30.06S
WILLMAR        FAIR      52  43  71 W10       30.02S
$$
MNZ033>034-036-042>043-049>051-058-059-260800-
   Central Minnesota

CITY           SKY/WX    TMP DP  RH WIND       PRES   REMARKS
ST CLOUD       CLOUDY    52  45  77 W12       29.94F
SAUK CENTRE    FAIR      49  45  84 W9        29.96F
PAYNESVILLE    CLOUDY    49  43  81 W7        29.98F
AITKIN         MIX PCPN  52  45  76 W6        29.84R
PINE RIVER     DRIZZLE   48  46  93 W7        29.91S
BRAINERD       CLOUDY    50  46  86 W13G22    29.90S
STAPLES        CLOUDY    48  45  87 W9        29.91F
LONG PRAIRIE   FAIR      50  43  76 SW7       29.95S
LITTLE FALLS   CLOUDY    50  45  81 W7        29.93F
BUFFALO        MOCLDY    54  44  69 W9        29.97F
MAPLE LAKE     PTCLDY    54  46  73 W7G16     29.97F
HUTCHINSON     PTCLDY    51  43  74 W7        30.01S
$$
MNZ037-044-045-052-053-260800-
   East Central Minnesota

CITY           SKY/WX    TMP DP  RH WIND       PRES   REMARKS
PRINCETON        N/A     54  46  76 W12G22    29.93S
MORA           DRIZZLE   50  45  81 W17G24    29.90S
CAMBRIDGE      LGT RAIN  55  43  62 W12G22    29.90S
MOOSE LAKE     LGT RAIN  50  45  81 W9G16     29.79F
HINCKLEY       RAIN      50  48  93 W15G21    29.85F
CLOQUET        DRIZZLE   50  46  87 W16G24    29.76F
MCGREGOR       CLOUDY    50  46  87 W12G20    29.82F
$$
MNZ071>073-080-081-089-090-097-098-260800-
   Southwest Minnesota

CITY           SKY/WX    TMP DP  RH WIND       PRES   REMARKS
MONTEVIDEO     CLEAR     54  39  58 NW9G18    30.05S
GRANITE FALLS  CLEAR     51  41  66 W9        30.06S
CANBY          CLEAR     52  38  58 NW14      30.09S
MARSHALL       CLEAR     53  37  54 W16       30.07F
REDWOOD FALLS  CLEAR     53  38  56 W16       30.03F
OLIVIA         CLEAR     50  39  66 W9        30.01F
PIPESTONE      CLEAR     48  37  66 W7        30.13S
WINDOM         CLEAR     50  37  62 W9        30.08F
WORTHINGTON    CLEAR     47  39  74 W12       30.12F
JACKSON        CLEAR     52  36  54 W10       30.10S
TRACY          CLEAR     52  39  61 W6        30.08S
$$
MNZ065>067-074>077-082>085-091>093-260800-
   South Central Minnesota

CITY           SKY/WX    TMP DP  RH WIND       PRES   REMARKS
MANKATO        CLEAR     53  40  61 W14G21    30.02F
ST JAMES       CLEAR     54  39  58 W14       30.06S
FAIRMONT       CLEAR     51  40  65 W12       30.08S
GLENCOE        MOCLDY    52  45  77 W6        29.99F
FARIBAULT      PTCLDY    54  43  66 W9G16     30.01S
OWATONNA       CLEAR     52  41  66 W8        30.01S
WASECA         CLEAR     50  43  76 SW7       30.04S
ALBERT LEA     CLEAR     52  43  71 W7        30.03F
$$
MNZ078>079-086>088-094>096-260800-
   Southeast Minnesota

CITY           SKY/WX    TMP DP  RH WIND       PRES   REMARKS
ROCHESTER      CLEAR     51  43  74 W10       30.00F
RED WING       MOCLDY    55  45  67 W8        29.95F
STANTON        PTCLDY    53  43  69 W7        29.98S
DODGE CENTER   CLEAR     48  43  81 W9        30.00F
WINONA         CLEAR     55  46  71 W5        29.97S
AUSTIN         CLEAR     52  41  66 W9        30.02S
PRESTON        CLEAR     50  42  74 W12       30.01S
$$
ABBREVIATIONS USED IN REMARKS
   TC - TEMPERATURES IN CELSIUS
  WCI - WIND CHILL INDEX
   HX - HEAT INDEX
  VSB - VISIBILITY
$$




USA.gov is the U.S. government's official web portal to all federal, state and local government web resources and services.